Wind_Speed
6 6 7 6 6 6 6 5 4 4 4 4 4 3 3 3 3 2 3 3 4 4 4 4 4 4 5 5 5 6 6 7 6 7 7 7 7 7 8 8 8 8 8
4 5 5 5 5 4 4 4 3 3 3 3 3 4 4 4 4 4 4 5 5 5 5 6 6 6 6 6 7 7 8 8 9 8 9 9 9 9 9 9 9 10 10
4 3 3 3 4 3 3 3 3 2 2 3 3 4 5 6 6 6 6 6 7 7 7 7 8 8 8 8 8 9 9 10 10 11 11 11 11 11 11 11 11 12 12
3 2 3 3 2 2 2 2 2 2 2 2 3 4 4 6 7 7 7 8 8 9 8 8 9 9 10 10 10 11 11 11 12 13 13 13 13 13 13 13 13 14 14
3 3 3 3 2 1 1 1 1 2 2 3 3 4 5 5 6 7 8 8 9 9 9 10 10 10 11 12 12 12 13 13 14 14 14 14 13 14 14 15 14 15 16
5 4 3 3 2 1 1 0 1 1 2 3 4 4 5 6 6 7 8 8 9 10 10 11 11 12 12 12 13 14 14 15 15 15 15 14 15 15 16 16 15 15 16
6 5 4 3 2 1 1 0 1 1 2 3 3 4 5 6 7 7 8 9 9 10 11 12 13 13 13 14 15 15 15 16 16 16 16 15 17 17 16 17 17 18 17
6 5 4 4 3 3 1 1 1 2 2 3 4 5 6 7 8 8 8 9 10 11 12 13 14 15 15 16 16 16 16 16 16 17 17 17 16 17 17 17 17 18 18
7 5 4 3 2 2 2 2 2 3 3 4 5 6 7 8 9 9 10 10 11 12 13 14 15 16 17 17 17 17 17 16 16 16 17 17 17 17 18 18 18 19 19
6 6 4 3 3 3 3 3 4 4 5 5 6 7 8 8 9 10 10 11 12 12 13 14 15 16 16 16 16 15 16 15 16 17 18 18 18 18 19 20 20 20 20
6 6 5 4 3 3 3 4 5 6 6 7 7 8 9 10 10 11 11 12 12 13 14 14 14 14 15 16 16 16 16 16 17 18 18 19 19 20 20 21 21 21 22
5 6 5 5 4 4 4 5 6 7 7 8 8 9 9 10 11 11 12 12 12 13 14 14 14 15 15 16 16 16 16 17 17 18 19 19 20 21 22 22 23 23 24
6 6 6 6 6 6 6 7 7 8 8 9 9 10 11 11 11 11 12 12 13 13 13 14 14 15 16 16 16 16 16 17 18 18 19 21 22 23 23 24 24 25 26
6 7 7 7 7 7 7 8 9 9 10 11 11 11 12 12 12 12 13 13 13 14 14 14 15 16 16 17 16 16 16 17 18 19 20 21 22 23 24 24 24 25 26
6 7 7 7 8 8 9 9 10 10 11 12 12 12 12 13 13 13 14 14 14 14 15 16 16 17 18 18 17 17 17 17 19 19 20 21 22 22 23 23 24 25 26
7 8 8 9 9 9 10 10 11 11 12 12 13 13 13 13 13 13 14 14 15 15 16 17 17 18 18 18 18 17 18 18 19 20 20 20 21 22 23 23 24 25 25
8 9 9 10 10 10 11 11 11 12 12 13 13 13 13 13 14 14 14 15 16 16 16 17 17 18 18 18 18 18 19 20 20 20 21 21 22 22 23 23 24 24 26
9 9 10 10 11 11 11 11 12 13 13 14 14 14 14 14 14 15 15 15 16 17 17 17 18 19 19 19 19 20 20 21 21 22 22 23 23 23 23 24 24 25 26
10 10 11 11 12 12 12 12 13 14 14 14 15 15 15 15 15 15 16 17 17 17 17 18 18 19 19 19 20 20 21 22 22 23 23 23 24 24 25 25 26 26 26
11 11 12 12 13 13 13 13 14 15 15 15 15 15 15 16 16 16 16 17 16 17 17 18 18 19 19 19 20 21 22 22 23 23 24 24 24 25 25 26 27 27 27
11 12 12 13 14 14 14 15 15 15 15 16 16 16 16 16 17 17 17 17 17 17 17 18 18 19 19 19 20 21 22 22 23 24 25 25 26 26 27 27 27 27 28
13 14 14 15 15 16 16 17 17 16 17 17 17 17 17 17 18 18 17 17 17 18 18 18 19 19 20 20 21 22 23 23 24 25 25 26 26 27 27 27 28 28 28
14 15 15 16 17 17 18 18 18 18 19 19 19 19 19 19 19 19 19 19 19 19 19 19 20 20 21 22 23 23 24 24 25 25 26 26 26 27 27 27 28 28 28
15 16 16 17 18 18 19 20 20 20 20 21 21 20 21 21 21 20 20 20 20 20 20 20 21 21 22 23 24 24 25 26 26 26 26 26 26 26 27 28 28 28 28
17 17 18 19 19 19 20 21 21 22 22 23 22 22 22 22 22 21 21 21 21 21 21 22 22 23 24 24 25 25 25 26 26 26 26 26 27 27 27 28 27 27 27
18 19 19 20 20 21 21 22 23 23 23 24 24 23 22 22 22 22 22 22 22 23 23 23 24 24 25 25 26 26 26 26 27 27 27 27 27 27 26 26 26 26 27
Wind_Direction
117 121 125 130 133 143 148 150 145 147 158 167 176 183 194 201 207 225 236 239 243 252 257 260 265 272 275 272 260 256 255 257 261 260 257 260 259 258 257 256 257 257 260
111 118 124 133 136 141 151 153 155 161 177 187 196 209 222 229 236 244 251 252 253 257 261 265 271 270 274 277 274 268 264 265 264 264 261 263 263 263 262 263 261 260 261
105 120 123 131 132 135 150 160 169 180 192 208 222 233 242 248 252 256 259 258 258 261 262 266 269 271 272 277 279 277 273 271 269 269 264 262 264 265 264 263 261 260 261
87 108 127 137 131 122 136 161 182 199 218 233 246 251 257 258 260 264 265 265 266 267 267 268 272 273 274 276 278 278 279 277 273 272 270 267 267 266 267 264 261 262 262
80 107 128 143 144 129 145 162 209 237 238 244 252 260 267 269 268 269 271 272 271 268 268 271 275 277 277 276 277 277 278 279 278 278 277 274 272 270 270 268 266 265 265
81 99 108 126 134 124 135 189 258 279 263 262 269 274 274 273 272 272 272 272 275 273 273 275 279 280 278 279 280 281 282 280 279 278 278 275 273 274 272 269 269 268 266
76 80 88 88 86 90 85 17 314 316 301 286 288 286 284 282 281 280 278 278 279 280 277 277 280 279 278 281 281 281 281 279 279 280 281 277 274 276 275 270 271 272 269
67 71 74 74 71 75 76 37 355 315 300 299 297 296 295 292 288 287 286 283 283 283 283 281 281 279 281 282 283 283 283 281 279 280 281 279 277 277 276 277 276 276 273
58 64 73 71 64 66 56 19 357 336 318 311 305 302 299 297 289 288 291 289 286 283 282 282 285 283 281 283 285 282 280 281 280 281 281 279 278 279 280 280 279 278 276
48 49 55 63 64 50 30 11 356 346 336 328 319 311 305 300 295 293 293 294 292 289 287 287 287 287 284 284 284 284 280 281 279 279 280 278 278 279 279 278 279 277 276
41 38 39 39 37 25 12 360 351 345 336 328 320 314 308 302 297 295 294 295 296 293 292 293 294 293 289 287 283 281 281 283 283 283 284 283 282 280 280 279 278 278 276
25 24 24 16 10 2 353 346 341 339 335 329 324 319 314 307 300 295 294 294 297 297 296 294 294 297 294 292 290 285 286 288 287 288 288 285 285 283 284 282 281 279 278
18 14 9 359 349 341 337 335 335 332 331 327 322 318 313 308 304 299 298 297 296 296 296 296 296 295 295 296 295 291 289 289 290 291 290 286 285 285 283 283 281 278 278
9 5 357 347 339 333 328 325 326 328 326 324 319 314 313 310 305 301 298 297 296 297 297 296 297 297 299 297 296 295 294 292 292 292 292 290 288 288 284 284 282 279 278
357 354 351 345 337 331 327 323 322 323 323 322 320 316 311 309 307 303 298 297 297 297 297 297 299 298 297 296 295 294 294 294 294 293 293 292 291 291 290 287 284 280 278
349 346 344 342 337 330 327 325 323 323 324 324 321 317 314 311 308 305 300 300 299 298 298 299 300 298 299 299 298 294 297 297 296 294 294 293 294 292 290 288 287 285 284
342 341 340 341 337 331 328 328 327 326 325 325 323 319 317 314 312 309 305 303 303 301 299 301 301 299 300 300 299 298 298 298 298 297 296 296 297 295 291 291 290 290 288
337 338 337 339 337 334 330 327 326 325 324 323 323 321 319 316 314 313 310 307 306 304 301 302 300 301 300 301 300 299 299 299 299 299 298 298 297 296 295 293 293 292 291
330 332 332 333 334 332 329 327 326 325 324 322 321 320 319 318 315 314 313 311 308 305 303 301 300 302 302 302 302 302 302 302 301 301 300 299 297 297 296 295 294 293 292
323 326 326 327 326 326 325 324 325 324 323 322 321 320 318 317 316 315 315 315 313 310 306 304 303 304 305 306 304 304 303 303 302 301 302 301 300 299 298 297 296 294 293
316 319 321 322 322 322 321 321 322 322 323 323 322 320 319 318 317 315 314 313 313 312 310 308 307 306 306 307 306 305 303 303 303 302 302 302 301 299 299 298 298 296 294
312 315 316 317 317 318 318 317 317 317 318 319 320 319 319 318 317 316 315 314 312 312 312 310 309 308 307 307 307 306 305 305 305 303 302 301 301 301 300 299 298 297 296
312 314 316 316 316 315 316 316 314 313 314 315 316 315 316 316 316 315 314 313 313 313 312 311 310 309 309 310 309 308 307 307 306 305 303 302 302 302 302 301 301 300 299
310 313 314 314 313 313 314 314 312 311 311 311 312 313 314 315 315 312 311 311 312 313 312 310 310 310 310 309 308 307 307 307 306 306 305 303 303 303 303 303 302 301 300
305 308 311 313 314 313 313 312 309 307 307 307 307 308 310 312 312 311 310 311 310 310 309 309 309 310 310 309 309 308 307 306 305 306 305 303 303 303 303 303 303 302 302
300 305 307 309 311 311 311 310 308 307 306 306 305 306 309 310 310 310 308 308 308 308 307 307 308 309 309 309 309 308 307 305 305 305 305 304 304 304 304 304 304 304 304
Height
5891 5891 5892 5892 5893 5893 5894 5895 5896 5896 5897 5897 5898 5899 5899 5899 5899 5900 5900 5900 5900 5900 5900 5900 5899 5899 5899 5899 5899 5898 5898 5898 5898 5898 5898 5898 5897 5897 5897 5897 5897 5897 5897
5891 5892 5892 5893 5893 5894 5895 5895 5896 5896 5897 5897 5898 5898 5898 5899 5899 5899 5899 5899 5899 5899 5899 5899 5898 5898 5898 5898 5897 5897 5896 5896 5896 5896 5896 5896 5895 5895 5895 5895 5895 5895 5895
5892 5892 5893 5893 5894 5894 5895 5895 5896 5896 5897 5897 5897 5897 5898 5898 5898 5898 5898 5898 5898 5898 5898 5897 5897 5897 5896 5896 5896 5895 5895 5894 5894 5894 5893 5893 5893 5893 5892 5892 5892 5892 5892
5893 5893 5893 5894 5894 5894 5895 5896 5896 5896 5896 5897 5897 5897 5897 5897 5897 5897 5897 5896 5896 5896 5896 5895 5895 5895 5894 5894 5893 5893 5892 5892 5891 5891 5890 5890 5890 5890 5889 5889 5889 5889 5889
5893 5893 5894 5894 5894 5895 5895 5895 5896 5896 5896 5896 5896 5896 5896 5896 5895 5895 5895 5894 5894 5894 5894 5893 5893 5893 5892 5892 5891 5890 5890 5889 5888 5888 5887 5887 5886 5886 5886 5885 5885 5885 5885
5894 5894 5894 5894 5895 5895 5895 5895 5896 5896 5895 5895 5895 5895 5894 5894 5894 5893 5893 5893 5892 5892 5892 5891 5891 5890 5890 5889 5888 5888 5887 5886 5885 5884 5884 5883 5883 5882 5881 5881 5881 5881 5880
5895 5895 5895 5895 5895 5895 5895 5895 5895 5895 5895 5895 5894 5894 5893 5893 5892 5892 5891 5891 5890 5890 5889 5889 5888 5887 5887 5886 5885 5884 5884 5883 5882 5881 5880 5879 5879 5878 5878 5877 5877 5876 5876
5896 5895 5895 5896 5895 5895 5895 5895 5895 5895 5894 5894 5893 5893 5892 5892 5890 5890 5889 5888 5888 5887 5887 5886 5885 5884 5883 5882 5882 5881 5880 5879 5878 5877 5876 5875 5875 5874 5873 5872 5872 5872 5871
5897 5896 5896 5896 5895 5895 5895 5894 5894 5894 5893 5892 5892 5891 5891 5890 5888 5888 5887 5886 5885 5884 5884 5883 5882 5881 5880 5879 5878 5877 5876 5875 5874 5873 5872 5871 5871 5870 5869 5868 5868 5867 5867
5898 5897 5896 5896 5895 5895 5895 5894 5893 5892 5892 5891 5890 5889 5889 5887 5886 5886 5885 5884 5883 5882 5880 5879 5878 5877 5876 5875 5874 5873 5872 5871 5870 5869 5868 5867 5866 5865 5865 5864 5863 5862 5862
5899 5898 5897 5896 5896 5895 5894 5894 5893 5892 5891 5890 5889 5887 5886 5885 5884 5883 5882 5881 5880 5879 5877 5876 5875 5874 5872 5871 5870 5869 5868 5867 5866 5865 5864 5863 5862 5861 5860 5859 5858 5857 5856
5899 5898 5897 5896 5896 5895 5894 5893 5892 5891 5889 5888 5887 5886 5884 5883 5882 5881 5879 5878 5877 5876 5874 5873 5872 5871 5869 5867 5866 5865 5864 5863 5862 5861 5860 5859 5858 5856 5855 5854 5853 5852 5851
5899 5898 5897 5896 5895 5894 5893 5892 5891 5890 5888 5887 5885 5884 5882 5881 5879 5878 5877 5875 5874 5873 5871 5870 5869 5867 5865 5864 5862 5861 5860 5859 5858 5856 5855 5854 5853 5851 5850 5848 5847 5846 5845
5899 5898 5897 5896 5895 5893 5892 5891 5890 5888 5887 5885 5883 5882 5880 5878 5877 5875 5874 5873 5871 5870 5868 5867 5865 5863 5862 5860 5859 5857 5856 5855 5853 5852 5851 5849 5848 5846 5844 5843 5841 5840 5838
5899 5898 5896 5895 5893 5892 5890 5889 5888 5886 5885 5883 5881 5879 5877 5876 5874 5872 5871 5870 5869 5867 5865 5863 5861 5860 5858 5856 5855 5853 5852 5850 5849 5847 5846 5844 5842 5841 5839 5837 5835 5834 5832
5899 5897 5895 5894 5892 5890 5889 5887 5885 5884 5882 5880 5878 5877 5875 5873 5871 5869 5868 5866 5865 5863 5862 5859 5857 5856 5854 5852 5851 5849 5847 5846 5844 5842 5841 5839 5837 5835 5833 5831 5829 5827 5826
5898 5896 5894 5892 5891 5889 5887 5885 5883 5882 5880 5878 5876 5874 5872 5870 5868 5866 5865 5863 5861 5860 5858 5855 5853 5851 5850 5848 5846 5845 5843 5841 5839 5837 5835 5833 5831 5829 5826 5825 5823 5821 5819
5897 5895 5893 5891 5889 5887 5885 5883 5881 5879 5877 5875 5873 5871 5869 5867 5865 5864 5862 5860 5858 5856 5854 5851 5849 5847 5845 5844 5842 5840 5838 5836 5834 5831 5829 5827 5825 5822 5820 5818 5816 5814 5811
5895 5893 5891 5889 5887 5885 5883 5881 5879 5877 5875 5873 5870 5868 5866 5864 5862 5860 5858 5856 5854 5851 5849 5847 5845 5843 5841 5839 5837 5835 5833 5830 5828 5826 5823 5821 5819 5816 5814 5812 5809 5807 5805
5893 5891 5889 5887 5885 5883 5881 5879 5877 5874 5872 5870 5868 5865 5863 5861 5859 5856 5854 5852 5849 5847 5845 5843 5841 5838 5836 5834 5832 5830 5827 5825 5822 5820 5817 5815 5812 5810 5807 5805 5802 5800 5797
5891 5889 5887 5885 5883 5881 5879 5876 5874 5872 5869 5867 5865 5862 5860 5857 5855 5853 5850 5848 5845 5843 5841 5838 5836 5834 5832 5829 5827 5825 5822 5820 5817 5814 5811 5808 5806 5803 5800 5798 5795 5792 5790
5888 5886 5884 5882 5880 5878 5876 5873 5871 5869 5866 5864 5861 5859 5856 5854 5851 5849 5846 5844 5841 5839 5836 5834 5832 5829 5827 5825 5822 5819 5817 5814 5811 5809 5805 5802 5799 5796 5793 5790 5787 5785 5782
5885 5883 5881 5879 5876 5874 5872 5870 5868 5865 5863 5860 5858 5855 5853 5850 5847 5845 5842 5840 5837 5835 5833 5830 5828 5825 5822 5820 5817 5814 5811 5808 5805 5802 5799 5796 5793 5789 5786 5783 5780 5777 5774
5882 5880 5878 5875 5873 5871 5868 5866 5864 5861 5859 5856 5853 5851 5848 5846 5843 5840 5838 5835 5833 5830 5828 5825 5823 5820 5817 5814 5811 5808 5805 5802 5799 5796 5793 5789 5786 5783 5780 5776 5773 5770 5767
5879 5876 5874 5872 5869 5867 5864 5862 5859 5857 5854 5851 5849 5846 5844 5841 5838 5835 5833 5831 5828 5826 5823 5820 5817 5815 5812 5809 5806 5802 5799 5796 5793 5789 5786 5783 5779 5776 5773 5769 5766 5763 5760
5875 5872 5870 5867 5865 5862 5860 5857 5854 5852 5849 5846 5844 5841 5839 5836 5834 5831 5828 5826 5823 5820 5818 5815 5812 5809 5806 5803 5799 5796 5793 5789 5786 5783 5779 5776 5773 5770 5767 5763 5760 5756 5753